When you browse on this site, cookies collect data to enhance your experience and personalize the content and advertising you see.
Visit our Privacy Policy to learn more. By continuing to use the site, you agree to this use of cookies and data.
EN

Hourly Weather Feliksow

Today, 4 August, Tuesday

Time Temperature Precipitation Wind Pressure Humidity
00:00 +17°C° 0.1 mm 2 mps 745 mmHg 93%
01:00 +17°C° 0 mm 2 mps 745 mmHg 93%
02:00 +17°C° 0.1 mm 2 mps 744 mmHg 93%
03:00 +18°C° 0.1 mm 1 mps 744 mmHg 93%
04:00 +18°C° 0.1 mm 1 mps 744 mmHg 93%
05:00 +17°C° 0.6 mm 2 mps 744 mmHg 94%
06:00 +17°C° 0.6 mm 2 mps 744 mmHg 95%
07:00 +17°C° 0 mm 3 mps 744 mmHg 95%
08:00 +17°C° 4 mm 3 mps 744 mmHg 96%
09:00 +17°C° 4 mm 4 mps 744 mmHg 96%
10:00 +17°C° 4 mm 4 mps 744 mmHg 97%
11:00 +17°C° 2.1 mm 4 mps 745 mmHg 96%
12:00 +17°C° 2.1 mm 4 mps 745 mmHg 96%
13:00 +17°C° 0 mm 4 mps 745 mmHg 95%
14:00 +17°C° 0.4 mm 4 mps 746 mmHg 95%
15:00 +16°C° 0.4 mm 5 mps 746 mmHg 94%
16:00 +15°C° 0.4 mm 5 mps 747 mmHg 94%
17:00 +15°C° 0.2 mm 4 mps 747 mmHg 93%
18:00 +15°C° 0.2 mm 4 mps 748 mmHg 92%
19:00 +16°C° 0.2 mm 3 mps 748 mmHg 91%
20:00 +16°C° 0 mm 3 mps 749 mmHg 91%
21:00 +16°C° 0 mm 3 mps 750 mmHg 91%
22:00 +16°C° 0 mm 2 mps 750 mmHg 91%
23:00 +15°C° 0 mm 2 mps 751 mmHg 91%

Tomorrow, 5 August, Wednesday

Time Temperature Precipitation Wind Pressure Humidity
00:00 +15°C° 0 mm 2 mps 751 mmHg 91%
01:00 +14°C° 0 mm 2 mps 751 mmHg 91%
02:00 +14°C° 0 mm 2 mps 752 mmHg 91%
03:00 +13°C° 0 mm 2 mps 752 mmHg 91%
04:00 +13°C° 0 mm 2 mps 752 mmHg 91%
05:00 +13°C° 0 mm 2 mps 753 mmHg 86%
06:00 +14°C° 0 mm 2 mps 753 mmHg 81%
07:00 +15°C° 0 mm 2 mps 753 mmHg 76%
08:00 +17°C° 0 mm 2 mps 753 mmHg 69%
09:00 +18°C° 0 mm 2 mps 754 mmHg 61%
10:00 +20°C° 0 mm 2 mps 754 mmHg 53%
11:00 +21°C° 0 mm 2 mps 754 mmHg 50%
12:00 +23°C° 0 mm 2 mps 754 mmHg 47%
13:00 +24°C° 0 mm 3 mps 754 mmHg 44%
14:00 +24°C° 0 mm 3 mps 754 mmHg 44%
15:00 +24°C° 0 mm 3 mps 754 mmHg 45%
16:00 +24°C° 0 mm 3 mps 754 mmHg 46%
17:00 +22°C° 0 mm 3 mps 754 mmHg 52%
18:00 +21°C° 0 mm 2 mps 754 mmHg 58%
19:00 +19°C° 0 mm 2 mps 754 mmHg 64%
20:00 +19°C° 0 mm 2 mps 754 mmHg 64%
21:00 +18°C° 0 mm 2 mps 755 mmHg 65%
22:00 +17°C° 0 mm 2 mps 755 mmHg 65%
23:00 +17°C° 0 mm 2 mps 755 mmHg 66%

Day after tomorrow, 6 August, Thursday

Time Temperature Precipitation Wind Pressure Humidity
00:00 +16°C° 0 mm 2 mps 755 mmHg 68%
01:00 +16°C° 0 mm 3 mps 755 mmHg 69%
02:00 +16°C° 0 mm 3 mps 755 mmHg 73%
03:00 +14°C° 0 mm 3 mps 755 mmHg 76%
04:00 +14°C° 0 mm 3 mps 755 mmHg 79%
05:00 +16°C° 0 mm 3 mps 755 mmHg 78%
06:00 +17°C° 0 mm 3 mps 756 mmHg 77%
07:00 +18°C° 0 mm 3 mps 756 mmHg 75%
08:00 +20°C° 0 mm 4 mps 756 mmHg 71%
09:00 +22°C° 0 mm 4 mps 756 mmHg 67%
10:00 +23°C° 0 mm 4 mps 756 mmHg 62%
11:00 +25°C° 0 mm 4 mps 756 mmHg 61%
12:00 +26°C° 0 mm 4 mps 756 mmHg 59%
13:00 +27°C° 0 mm 5 mps 756 mmHg 57%
14:00 +27°C° 0 mm 5 mps 756 mmHg 59%
15:00 +27°C° 0 mm 4 mps 756 mmHg 60%
16:00 +27°C° 0 mm 4 mps 755 mmHg 61%
17:00 +26°C° 0 mm 4 mps 755 mmHg 66%
18:00 +23°C° 0 mm 4 mps 755 mmHg 70%
19:00 +22°C° 0 mm 3 mps 755 mmHg 75%
20:00 +22°C° 0 mm 4 mps 756 mmHg 76%
21:00 +21°C° 0 mm 4 mps 756 mmHg 77%
22:00 +20°C° 0 mm 4 mps 756 mmHg 78%
23:00 +20°C° 0 mm 3 mps 756 mmHg 79%

7 August, Friday

Time Temperature Precipitation Wind Pressure Humidity
00:00 +20°C° 0 mm 3 mps 756 mmHg 81%
01:00 +19°C° 0 mm 3 mps 757 mmHg 83%
02:00 +19°C° 0 mm 3 mps 757 mmHg 86%
03:00 +19°C° 0 mm 3 mps 757 mmHg 88%
04:00 +19°C° 0 mm 3 mps 756 mmHg 91%
05:00 +20°C° 0 mm 3 mps 757 mmHg 88%
06:00 +21°C° 0 mm 4 mps 757 mmHg 84%
07:00 +22°C° 0 mm 4 mps 757 mmHg 81%
08:00 +23°C° 0 mm 4 mps 757 mmHg 75%
09:00 +26°C° 0 mm 4 mps 757 mmHg 70%
10:00 +27°C° 0 mm 4 mps 757 mmHg 65%
11:00 +28°C° 0.1 mm 4 mps 757 mmHg 61%
12:00 +29°C° 0.1 mm 4 mps 757 mmHg 57%
13:00 +30°C° 0.1 mm 4 mps 756 mmHg 54%
14:00 +30°C° 0.2 mm 4 mps 756 mmHg 55%
15:00 +30°C° 0.2 mm 4 mps 756 mmHg 56%
16:00 +29°C° 0.2 mm 4 mps 755 mmHg 56%
17:00 +28°C° 0.3 mm 4 mps 755 mmHg 62%
18:00 +27°C° 0.3 mm 3 mps 755 mmHg 67%
19:00 +25°C° 0.3 mm 3 mps 755 mmHg 72%
20:00 +24°C° 0 mm 3 mps 756 mmHg 75%
21:00 +24°C° 0 mm 3 mps 756 mmHg 78%
22:00 +22°C° 0 mm 3 mps 756 mmHg 81%
23:00 +21°C° 0 mm 3 mps 756 mmHg 82%

8 August, Saturday

Time Temperature Precipitation Wind Pressure Humidity
00:00 +21°C° 0 mm 3 mps 756 mmHg 83%
01:00 +21°C° 0 mm 3 mps 756 mmHg 84%
02:00 +20°C° 0 mm 3 mps 755 mmHg 84%
03:00 +20°C° 0 mm 3 mps 755 mmHg 83%
04:00 +19°C° 0 mm 3 mps 755 mmHg 83%
05:00 +20°C° 0 mm 3 mps 755 mmHg 80%
06:00 +21°C° 0 mm 3 mps 755 mmHg 78%
07:00 +22°C° 0 mm 3 mps 755 mmHg 75%
08:00 +24°C° 0 mm 3 mps 755 mmHg 70%
09:00 +26°C° 0 mm 4 mps 755 mmHg 64%
10:00 +27°C° 0 mm 4 mps 754 mmHg 59%
11:00 +28°C° 0 mm 3 mps 754 mmHg 56%
12:00 +29°C° 0 mm 3 mps 754 mmHg 53%
13:00 +29°C° 0 mm 3 mps 753 mmHg 50%
14:00 +29°C° 0 mm 3 mps 753 mmHg 50%
15:00 +29°C° 0 mm 3 mps 753 mmHg 50%
16:00 +29°C° 0 mm 3 mps 752 mmHg 50%
17:00 +28°C° 0 mm 3 mps 752 mmHg 56%
18:00 +27°C° 0 mm 3 mps 752 mmHg 62%
19:00 +25°C° 0 mm 3 mps 752 mmHg 68%
20:00 +25°C° 0 mm 3 mps 752 mmHg 71%
21:00 +24°C° 0 mm 2 mps 752 mmHg 74%
22:00 +23°C° 0 mm 2 mps 752 mmHg 77%
23:00 +21°C° 0 mm 2 mps 752 mmHg 79%

9 August, Sunday

Time Temperature Precipitation Wind Pressure Humidity
00:00 +21°C° 0 mm 2 mps 752 mmHg 80%
01:00 +20°C° 0 mm 2 mps 752 mmHg 82%
02:00 +20°C° 0 mm 2 mps 752 mmHg 83%
03:00 +20°C° 0 mm 2 mps 752 mmHg 84%
04:00 +19°C° 0 mm 2 mps 751 mmHg 85%
05:00 +20°C° 0 mm 2 mps 752 mmHg 82%
06:00 +21°C° 0 mm 2 mps 752 mmHg 78%
07:00 +24°C° 0 mm 2 mps 752 mmHg 74%
08:00 +25°C° 0.2 mm 2 mps 752 mmHg 69%
09:00 +26°C° 0.2 mm 2 mps 751 mmHg 63%
10:00 +27°C° 0.2 mm 2 mps 751 mmHg 57%
11:00 +28°C° 0.4 mm 2 mps 751 mmHg 55%
12:00 +28°C° 0.4 mm 2 mps 751 mmHg 52%
13:00 +29°C° 0.4 mm 3 mps 751 mmHg 50%
14:00 +29°C° 0.1 mm 3 mps 750 mmHg 50%
15:00 +29°C° 0.1 mm 3 mps 750 mmHg 50%
16:00 +29°C° 0.1 mm 3 mps 750 mmHg 50%
17:00 +28°C° 0.1 mm 3 mps 750 mmHg 55%
18:00 +26°C° 0.1 mm 2 mps 750 mmHg 60%
19:00 +25°C° 0.1 mm 2 mps 750 mmHg 66%
20:00 +24°C° 0.1 mm 2 mps 750 mmHg 68%
21:00 +23°C° 0.1 mm 2 mps 750 mmHg 71%
22:00 +21°C° 0.1 mm 2 mps 750 mmHg 73%
23:00 +21°C° 0.1 mm 2 mps 750 mmHg 76%
Show more